Theta_e
285 285 284 284 283 283 283 282 282 281 281 281 281 281 281 281 282 281 280 280 280 279 279 279 279 279 280 279 279 279 279 278 278 278 278 278 278 278 279 278 278 278
284 284 284 283 282 283 282 282 281 281 280 280 280 280 281 281 280 280 279 279 279 279 279 279 278 278 278 278 278 277 277 277 277 279 278 277 277 277 278 278 278 278
283 283 283 283 282 281 281 281 280 280 280 279 279 279 280 280 279 279 279 278 278 278 278 278 277 277 277 277 277 277 276 276 276 276 277 277 277 277 277 277 277 277
283 283 283 282 281 281 281 280 279 279 279 279 278 279 279 280 278 278 278 279 277 276 276 276 277 276 277 276 276 276 276 276 276 276 276 276 277 277 277 277 277 277
282 282 282 281 281 280 280 280 279 278 278 278 278 278 278 278 277 277 277 276 276 276 276 276 276 276 276 276 276 275 276 276 276 275 275 275 276 276 277 277 276 276
282 281 281 281 280 279 279 278 278 277 277 277 277 278 277 277 276 276 276 276 276 276 275 275 275 275 275 275 275 275 275 275 275 275 274 274 275 275 276 276 275 275
281 280 280 279 278 278 278 277 277 277 276 276 277 276 276 276 276 276 276 276 275 275 275 274 274 274 275 275 274 274 274 274 274 274 274 274 274 274 275 274 274 274
281 280 279 279 278 277 277 276 276 276 276 276 275 275 275 275 275 275 275 275 274 274 274 274 274 274 274 274 274 274 273 274 274 273 273 273 273 272 272 273 273 273
280 279 278 278 277 277 276 276 276 275 275 275 274 274 275 275 274 274 274 274 274 274 274 273 274 273 273 273 273 272 272 272 272 272 271 271 271 271 271 272 271 271
279 278 277 277 277 276 276 275 275 275 275 274 274 274 274 274 274 274 274 274 273 273 273 273 273 272 272 272 272 271 271 271 271 271 271 270 270 270 270 270 270 270
278 278 277 276 276 276 275 275 275 275 275 274 274 273 273 273 273 273 273 273 273 272 272 272 272 272 271 271 271 271 270 270 270 270 270 270 270 270 271 270 270 270
278 277 277 276 276 276 275 275 275 274 274 274 273 273 273 273 273 272 272 272 271 271 270 270 270 270 270 270 270 270 270 270 270 269 269 269 269 270 270 270 270 270
278 277 277 276 276 276 275 275 274 274 274 273 273 273 272 271 271 271 271 271 270 270 270 270 270 270 269 268 268 268 269 269 269 269 269 269 269 270 270 270 270 271
277 277 276 276 276 275 275 274 274 273 273 273 272 272 271 271 270 270 270 271 270 270 270 270 269 269 268 268 268 268 268 269 269 269 269 269 270 271 271 272 272 272
277 276 276 276 275 275 274 273 273 273 272 272 272 271 271 271 271 271 270 270 270 270 269 270 269 269 269 268 268 268 268 268 269 269 270 270 271 272 272 272 272 273
276 276 275 275 274 274 273 273 272 272 271 271 271 271 270 270 270 270 269 269 269 269 269 269 269 269 270 273 273 269 268 269 270 271 272 272 272 272 272 273 273 273
276 275 275 274 274 273 272 272 272 271 270 270 269 269 268 268 269 268 268 268 268 268 268 269 269 270 272 274 275 276 274 272 272 272 272 272 273 272 272 272 273 273
275 274 274 273 272 272 272 271 270 269 269 268 267 267 267 268 268 268 268 268 268 268 269 269 269 271 273 274 275 276 276 274 273 273 273 273 273 273 272 272 272 272
274 273 272 272 271 271 270 269 268 268 268 267 267 267 267 267 267 267 267 268 268 268 268 269 269 271 273 274 275 275 276 275 274 274 273 273 273 273 272 272 272 272
273 273 272 271 270 269 269 268 267 267 267 267 267 267 267 267 267 267 268 268 268 268 268 268 268 270 273 273 274 275 276 276 274 274 274 273 272 272 272 272 272 272
273 272 271 270 269 268 267 267 267 266 266 267 267 267 266 266 266 267 267 268 268 268 268 267 267 271 272 273 274 275 276 276 274 273 272 272 272 272 272 272 273 273
273 272 271 269 268 267 267 267 266 266 266 267 267 267 267 267 267 267 267 267 267 267 266 266 267 270 272 273 274 274 276 274 273 272 272 272 272 273 273 273 273 273
273 272 270 268 267 267 266 266 266 266 266 267 266 267 266 267 267 267 267 267 266 266 266 266 266 268 271 272 273 275 275 273 273 272 272 271 272 272 273 273 273 274
272 270 269 268 267 266 266 266 266 267 266 267 266 266 266 267 267 266 267 266 266 266 266 265 265 267 271 272 274 274 275 273 272 271 271 272 272 273 273 273 274 276
271 270 268 267 266 266 266 266 266 266 266 266 266 267 266 267 266 266 266 266 266 266 267 267 265 267 271 272 273 274 274 272 272 271 271 271 271 272 273 273 273 274
270 269 268 267 266 266 266 266 267 266 266 265 266 266 265 266 266 265 265 265 266 265 265 266 266 266 268 272 273 274 274 273 272 271 270 271 271 271 271 272 272 271
Wind_Speed
10 9 9 9 8 8 9 10 8 9 8 8 8 8 8 7 7 6 6 5 4 4 3 3 3 3 2 2 2 3 3 3 3 3 4 5 5 5 6 6 6 6
12 11 8 8 7 7 7 8 9 9 8 8 7 7 7 7 6 7 6 5 4 4 4 4 3 3 3 2 1 2 3 3 4 3 4 5 5 4 6 6 7 7
12 12 12 12 11 10 9 8 8 8 8 7 7 7 7 7 7 6 6 6 5 4 3 3 2 2 2 1 1 2 3 3 5 4 5 5 5 5 5 6 6 7
13 13 13 12 11 11 9 9 7 7 7 8 8 7 7 6 7 6 6 5 4 3 3 3 3 3 2 2 2 3 3 4 4 4 5 5 5 5 7 5 7 7
14 13 11 11 10 10 10 10 10 9 9 8 7 7 7 7 7 6 5 4 4 4 4 4 3 2 2 2 2 3 4 5 4 4 5 5 5 5 5 5 6 8
12 11 11 11 11 12 11 11 10 10 9 9 9 7 7 7 6 6 5 5 5 5 4 3 3 2 2 2 3 4 4 5 4 4 4 5 5 5 5 6 7 9
14 13 13 11 11 11 11 11 10 9 9 8 8 7 7 7 6 6 5 5 5 4 4 3 3 3 2 2 3 3 4 4 4 4 5 6 5 6 6 6 7 8
14 11 11 10 11 11 11 11 10 10 9 9 8 7 7 7 7 5 5 5 4 4 4 3 3 3 3 2 3 3 4 3 4 4 5 6 5 7 6 6 7 9
12 12 12 12 13 11 11 11 10 9 9 10 9 8 7 7 6 6 5 5 4 4 3 3 3 3 2 2 3 3 4 4 4 4 5 6 7 7 7 6 8 9
14 12 13 13 13 11 12 11 10 10 9 9 9 8 8 6 6 6 5 5 5 4 4 3 3 2 3 3 3 3 3 5 5 5 5 6 7 7 7 7 8 10
15 14 15 14 14 11 13 12 11 10 9 9 9 8 7 7 6 5 5 5 5 4 4 3 3 3 3 3 3 3 4 5 5 5 5 6 7 8 8 8 9 10
15 14 16 15 14 12 13 12 11 10 10 8 9 9 7 7 6 5 5 5 4 4 3 3 2 2 2 3 3 3 4 5 5 5 6 7 7 8 8 8 9 10
15 16 14 13 13 12 11 11 11 10 10 10 8 9 8 7 6 5 4 5 3 3 2 2 2 2 3 3 4 4 5 6 6 6 7 6 7 8 9 9 10 11
13 12 12 12 10 11 11 11 10 10 10 9 9 9 8 7 7 7 4 4 3 3 3 2 3 3 4 4 5 5 5 5 5 6 6 8 9 10 11 12 13 13
11 10 10 11 11 12 12 11 11 10 10 9 9 8 6 6 6 5 5 4 4 3 4 4 4 5 5 5 5 6 5 4 5 6 8 9 10 11 12 12 13 13
12 11 11 11 12 12 12 11 11 11 10 9 8 8 7 6 6 5 5 5 5 6 6 6 6 5 8 14 11 6 5 4 5 7 8 10 11 12 12 12 13 11
12 12 12 13 12 11 10 11 11 10 10 9 8 7 7 6 6 6 6 6 6 6 7 6 6 6 12 12 12 12 7 6 7 8 9 10 11 11 12 12 12 13
12 12 12 11 11 12 11 11 10 10 10 9 9 8 7 6 6 6 6 6 6 7 7 6 6 9 13 11 11 11 10 8 7 8 8 9 10 11 12 12 13 12
12 13 12 12 11 11 10 11 11 10 9 9 9 7 7 7 7 7 7 7 7 7 7 6 6 10 11 11 10 11 12 11 7 8 9 9 9 10 11 12 12 13
14 15 14 13 12 12 12 12 12 10 7 7 7 8 8 7 7 8 7 7 7 7 6 6 6 8 11 9 10 11 11 11 7 8 7 8 10 11 11 12 14 15
16 15 15 14 14 14 14 14 12 9 10 9 8 9 9 9 8 8 7 6 6 6 4 5 5 10 9 9 10 11 11 11 5 5 7 7 9 10 11 13 14 13
17 17 16 15 15 16 15 11 10 11 11 9 8 7 6 6 6 6 7 7 6 5 4 6 6 9 8 8 9 9 11 6 3 7 7 7 8 10 12 12 12 14
17 17 16 16 17 14 10 10 12 11 9 8 9 8 8 8 7 6 6 6 6 6 6 6 5 7 8 8 9 10 8 4 5 5 6 7 8 10 10 11 12 13
16 17 18 17 19 15 11 10 9 8 9 8 9 10 8 8 7 6 6 6 7 7 7 6 4 7 9 8 9 9 8 4 4 6 7 7 8 9 7 9 12 21
15 16 17 17 17 15 15 13 11 10 9 8 7 7 8 7 6 6 5 5 5 5 8 7 6 7 10 8 8 8 7 3 5 5 7 8 8 8 8 9 11 12
14 16 16 17 16 14 10 8 9 9 9 9 7 6 6 6 5 5 5 4 3 4 4 5 6 5 6 9 8 8 9 6 4 5 7 8 8 8 8 8 9 10
Wind_Direction
180 182 177 178 179 175 167 167 168 162 161 160 158 161 158 152 137 137 141 137 146 160 179 190 192 197 202 215 220 233 232 237 252 247 250 253 255 256 263 262 265 259
184 179 172 166 169 171 170 164 162 161 162 160 154 146 144 137 139 139 145 149 159 174 182 190 192 188 196 197 213 238 260 260 263 255 256 255 255 257 261 261 260 259
180 181 177 176 174 171 167 163 156 157 156 157 147 144 143 142 141 144 150 153 165 173 180 179 178 183 182 188 200 228 247 258 259 255 253 253 257 256 257 261 259 261
187 184 180 177 170 167 162 156 155 150 145 149 160 154 145 143 141 147 146 150 154 166 174 185 190 187 182 196 208 228 234 242 242 242 254 256 254 252 258 253 259 262
185 183 180 174 168 161 159 161 161 159 159 157 147 148 145 143 145 146 144 155 164 179 177 178 173 180 181 194 213 234 241 246 249 248 252 259 251 254 260 260 267 267
186 182 177 173 167 162 165 166 164 160 156 155 160 148 148 144 147 149 155 167 171 171 176 169 172 180 179 208 224 233 239 247 253 250 260 262 269 265 271 270 271 272
183 177 176 170 163 164 161 163 161 159 159 154 140 151 146 146 150 155 157 165 170 172 174 180 174 187 187 198 223 238 242 244 251 255 261 263 268 269 267 274 276 277
178 174 171 168 164 163 161 160 159 158 153 146 150 150 146 149 154 155 159 168 169 176 180 180 185 188 198 200 227 241 252 249 255 260 262 272 273 276 277 275 278 278
170 174 171 170 167 167 163 160 157 153 151 147 146 147 143 149 153 153 160 162 169 179 184 187 189 192 191 201 223 234 249 254 259 261 268 271 273 274 276 278 277 275
176 171 171 173 173 171 164 160 155 152 148 144 142 142 145 146 147 154 157 169 175 183 185 186 182 186 196 209 221 233 246 258 257 260 264 267 271 274 276 275 272 277
176 173 175 175 174 168 164 157 154 149 147 145 140 141 143 141 149 155 164 171 183 183 191 188 190 192 199 209 224 226 243 253 255 258 261 265 267 267 269 268 269 268
177 175 179 177 170 166 162 157 152 148 144 140 141 141 141 150 156 164 168 178 172 183 177 179 174 180 198 222 228 238 244 247 253 257 261 264 264 265 265 266 268 266
181 181 175 172 169 163 157 153 150 145 142 143 142 143 148 153 159 153 155 160 171 160 173 176 195 198 214 227 230 233 236 244 253 255 259 260 263 265 263 262 262 263
181 172 168 166 161 155 153 150 144 141 138 134 136 144 149 153 155 156 151 135 154 152 172 181 197 213 220 222 228 227 231 241 245 255 262 265 266 267 271 271 268 267
165 164 161 159 156 152 150 148 143 137 134 133 135 138 136 140 138 137 150 153 164 178 199 211 212 222 220 221 220 227 220 227 244 255 262 269 272 271 271 269 269 269
162 160 161 158 154 154 149 144 141 138 136 135 128 131 132 136 140 143 152 169 184 201 208 216 222 219 228 232 227 203 201 218 236 246 259 266 271 273 271 269 268 269
161 163 158 159 153 146 145 144 141 139 135 131 133 135 138 139 146 157 168 181 191 201 210 215 220 224 233 237 242 246 241 241 258 265 264 267 268 274 278 280 280 279
162 156 156 154 150 151 148 142 135 136 135 136 139 140 144 143 152 168 173 183 195 206 213 217 222 235 239 244 249 252 255 257 257 260 260 268 276 274 278 282 284 281
157 157 155 153 155 148 143 137 139 133 136 142 145 139 140 150 165 170 179 187 197 203 212 218 223 236 245 252 256 256 259 262 262 263 264 250 268 280 283 283 283 284
160 160 160 157 151 149 148 145 138 134 128 126 132 142 153 158 166 174 180 189 196 202 210 223 226 239 251 255 257 260 262 269 267 264 265 283 286 283 281 281 284 285
164 163 160 157 155 153 145 134 133 132 140 148 152 156 159 164 169 174 185 184 195 200 206 230 236 245 251 257 262 266 270 274 272 290 287 267 269 277 281 282 283 282
166 166 162 159 155 137 137 144 142 146 148 147 143 141 145 152 163 169 180 187 188 184 207 234 239 249 260 263 266 270 275 282 263 271 263 266 264 274 283 286 288 290
169 164 161 156 136 140 141 141 147 143 140 141 143 151 157 164 166 168 175 179 186 190 208 232 238 253 260 260 263 271 281 261 258 263 268 270 272 274 282 288 292 292
168 162 159 158 156 152 144 143 136 132 142 149 148 152 158 162 160 161 176 183 190 194 204 224 233 250 252 257 264 271 277 272 274 267 271 277 278 280 284 287 290 299
165 163 160 159 162 160 155 146 146 147 144 137 140 141 148 153 152 162 174 185 192 192 218 226 229 242 252 257 267 273 284 272 263 270 275 280 286 289 287 285 293 300
165 165 162 159 157 152 149 132 132 129 142 144 144 135 135 139 151 160 174 174 178 194 221 231 231 232 243 257 266 277 288 288 270 277 284 288 292 292 300 301 301 298